SCP
0 0 0 0 0 0 0 0 0 0 0 0 0 0 0 0 0 0 0 0 0 0 0 0 0 0 0 0 0 0 0 0 0 0 0 0 0 0 0 0 0 0 0 0
0 0 0 0 0 0 0 0 0 0 0 0 0 0 0 0 0 0 0 0 0 0 0 0 0 0 0 0 0 0 0 0 0 0 0 0 0 0 0 0 0 0 0 0
0 0 0 0 0 0 0 0 0 0 0 0 0 0 0 0 0 0 0 0 0 0 0 0 0 0 0 0 0 0 0 0 0 0 0 0 0 0 0 0 0 0 0 0
0 0 0 0 0 0 0 0 0 0 0 0 0 0 0 0 0 0 0 0 0 0 0 0 0 0 0 0 0 0 0 0 0 0 0 0 0 0 0 0 0 0 0 0
0 0 0 0 0 0 0 0 0 0 0 0 0 0 0 0 0 0 0 0 0 0 0 0 0 0 0 0 0 0 0 0 0 0 0 0 0 0 0 0 0 0 0 0
0 0 0 0 0 0 0 0 0 0 0 0 0 0 0 0 0 0 0 0 0 0 0 0 0 0 0 0 0 0 0 0 0 0 0 0 0 0 0 0 0 0 0 0
0 0 0 0 0 0 0 0 0 0 0 0 0 0 0 0 0 0 0 0 0 0 0 0 0 0 0 0 0 0 0 0 0 0 0 0 0 0 0 0 0 0 0 0
0 0 0 0 0 0 0 0 0 0 0 0 0 0 0 0 0 0 0 0 0 0 0 0 0 0 0 0 0 0 0 0 0 0 0 0 0 0 0 0 0 0 0 0
0 0 0 0 0 0 0 0 0 0 0 0 0 0 0 0 0 0 0 0 0 0 0 0 0 0 0 0 0 0 0 0 0 0 0 0 0 0 0 0 0 0 0 0
0 0 0 0 0 0 0 0 0 0 0 0 0 0 0 0 0 0 0 0 0 0 0 0 0 0 0 0 0 0 0 0 0 0 0 0 0 0 0 0 0 0 0 0
0 0 0 0 0 0 0 0 0 0 0 0 0 0 0 0 0 0 0 0 0 0 0 0 0 0 0 0 0 0 0 0 0 0 0 0 0 0 0 0 0 0 0 0
0 0 0 0 0 0 0 0 0 0 0 0 0 0 0 0 0 0 0 0 0 0 0 0 0 0 0 0 0 0 0 0 0 0 0 0 0 0 0 0 0 0 0 0
0 0 0 0 0 0 0 0 0 0 0 0 0 0 0 0 0 0 0 0 0 0 0 0 0 0 0 0 0 0 0 0 0 0 0 0 0 0 0 0 0 0 0 0
0 0 0 0 0 0 0 0 0 0 0 0 0 0 0 0 0 0 0 0 0 0 0 0 0 0 0 0 0 0 0 0 0 0 0 0 0 0 0 0 0 0 0 0
0 0 0 0 0 0 0 0 0 0 0 0 0 0 0 0 0 0 0 0 0 0 0 0 0 0 0 0 0 0 0 0 0 0 0 0 0 0 0 0 0 0 0 0
0 0 0 0 0 0 0 0 0 0 0 0 0 0 0 0 0 0 0 0 0 0 0 0 0 0 0 0 0 0 0 0 0 0 0 0 0 0 0 0 0 0 0 0
0 0 0 0 0 0 0 0 0 0 0 0 0 0 0 0 0 0 0 0 0 0 0 0 0 0 0 0 0 0 0 0 0 0 0 0 0 0 0 0 0 0 0 0
0 0 0 0 0 0 0 0 0 0 0 0 0 0 0 0 0 0 0 0 0 0 0 0 0 0 0 0 0 0 0 0 0 0 0 0 0 0 0 0 0 0 0 0
0 0 0 0 0 0 0 0 0 0 0 0 0 0 0 0 0 0 0 0 0 0 0 0 0 0 0 0 0 0 0 0 0 0 0 0 0 0 0 0 0 0 0 0
0 0 0 0 0 0 0 0 0 0 0 0 0 0 0 0 0 -0 0 0 0 0 0 0 0 0 0 0 0 0 0 0 0 0 0 0 0 0 0 0 0 0 0 0
0 0 0 0 0 0 0 0 0 0 0 0 0 0 0 0 0 0 0 0 0 0 0 0 0 0 0 0 0 0 0 0 0 0 0 0 0 0 0 0 0 0 0 0
0 0 0 0 0 0 0 0 0 0 0 0 0 0 0 0 0 0 0 0 0 0 0 0 0 0 0 0 0 0 0 0 0 0 0 0 0 0 0 0 0 0 0 0
0 0 0 0 0 0 0 0 0 0 0 0 0 0 0 0 0 0 0 0 0 0 0 0 0 0 0 0 0 0 0 0 0 0 0 0 0 0 0 0 0 0 0 0
0 0 0 0 0 0 0 0 0 0 0 0 0 0 0 0 0 0 -0 0 0 0 0 0 0 0 0 0 0 0 0 0 0 0 0 0 0 0 0 0 0 0 0 0
0 0 0 0 0 0 0 0 0 0 0 0 0 0 0 0 0 0 0 0 0 0 0 0 0 0 0 0 0 0 0 0 0 0 0 0 0 0 0 0 0 0 0 0
0 0 0 0 0 0 0 0 0 0 0 0 0 0 0 0 0 0 0 0 0 0 0 0 0 0 0 0 0 0 0 0 0 0 0 0 0 0 0 0 0 0 0 0
Wind_Speed_500mb
7 12 21 26 18 3 11 11 12 3 3 5 15 29 28 25 26 29 29 30 32 35 37 47 46 43 41 40 38 35 31 28 28 28 27 28 30 33 35 33 30 27 24 23
10 20 13 15 14 10 10 10 6 1 2 6 10 31 34 30 34 41 46 43 39 34 42 49 47 42 38 36 34 30 26 25 25 24 23 22 22 24 24 17 14 9 10 11
19 5 28 18 17 19 9 14 7 4 2 3 14 21 13 8 20 26 34 40 45 47 42 48 50 44 37 34 31 27 23 22 21 18 17 16 14 9 2 1 2 7 12 14
9 8 29 24 23 20 19 15 12 11 6 7 7 11 7 5 13 14 15 19 32 39 42 45 48 46 43 37 29 25 23 19 15 13 13 11 9 6 5 6 9 12 15 19
12 19 28 26 17 18 4 16 13 5 5 5 9 9 10 5 8 5 8 5 9 18 30 41 49 48 43 37 31 24 17 13 13 13 12 11 9 6 7 10 14 17 20 22
7 3 8 8 7 18 27 18 12 7 3 8 8 11 10 9 2 2 10 11 9 12 21 35 45 43 39 34 25 18 16 15 14 13 11 9 8 8 9 12 15 18 21 23
9 7 3 8 18 10 7 21 5 7 7 6 7 9 19 10 12 16 20 8 4 9 19 35 43 42 36 27 22 21 19 18 15 12 9 6 4 5 8 12 15 18 20 21
18 10 18 13 8 17 14 10 6 10 7 4 4 12 6 2 5 10 7 6 9 15 23 33 37 34 29 27 27 26 23 19 14 10 5 1 4 8 11 14 17 19 21 22
13 6 5 3 5 20 15 16 4 10 2 4 7 8 18 3 2 0 5 9 14 19 24 28 30 30 30 30 29 28 24 16 9 3 3 7 10 13 16 19 22 24 25 25
11 12 2 4 7 6 9 24 7 2 9 10 6 9 12 4 3 5 9 15 18 24 28 29 26 27 30 32 30 27 20 11 7 10 12 14 15 17 20 22 24 25 25 25
9 5 7 9 18 26 11 11 3 7 2 5 5 6 4 7 5 6 17 22 23 27 31 27 23 26 29 29 24 20 18 17 16 18 21 22 21 21 23 25 27 28 27 26
8 9 9 14 5 6 9 13 15 9 10 5 3 9 8 8 12 15 19 22 23 25 27 25 24 26 28 28 24 24 24 24 26 26 26 26 25 24 26 28 30 31 29 27
20 9 11 5 6 3 14 16 20 5 3 16 11 6 5 7 10 16 29 30 33 33 31 28 25 22 22 23 26 27 31 33 33 32 30 30 29 30 31 31 31 31 29 27
28 8 7 18 6 20 23 31 31 33 12 16 25 16 13 10 14 23 31 34 33 33 28 24 24 24 28 31 32 32 32 33 32 31 31 30 32 34 34 34 33 31 29 28
17 9 10 3 4 10 13 36 41 44 42 25 21 40 34 24 26 40 46 37 33 35 34 32 32 35 35 34 33 33 32 29 28 27 28 31 35 37 37 35 34 32 30 28
10 6 8 6 1 2 13 27 38 41 43 47 41 46 26 41 31 39 50 50 47 49 44 35 32 37 37 35 33 29 22 18 18 22 26 31 35 37 38 37 35 33 30 26
22 11 8 12 3 5 19 31 34 34 45 44 44 43 27 25 34 47 56 58 72 62 55 46 33 33 33 33 30 21 18 16 18 22 26 30 34 39 40 40 38 35 32 29
28 17 2 6 8 18 4 2 20 39 32 39 38 28 36 46 51 51 70 75 73 72 66 50 48 43 39 30 28 22 17 15 20 28 34 37 41 44 45 44 41 38 34 30
26 14 7 9 12 20 28 14 16 21 28 42 42 44 43 32 31 40 68 74 78 72 65 66 55 45 38 34 30 25 19 18 25 36 38 42 44 46 47 46 43 40 36 34
12 16 11 6 11 14 5 1 13 10 18 29 46 46 44 31 21 30 43 68 74 71 55 45 37 40 38 37 36 30 26 31 39 40 39 45 46 46 47 44 43 41 38 36
15 10 23 12 12 14 15 11 26 11 8 9 24 44 37 25 48 26 13 21 35 40 43 42 39 41 42 43 38 37 41 46 43 46 47 49 48 46 44 43 45 42 41 40
19 18 13 8 15 28 20 18 17 9 9 2 3 24 41 48 34 40 31 21 18 18 24 35 44 49 49 47 47 50 57 48 49 51 52 50 48 46 47 47 47 47 47 43
14 12 13 22 14 7 50 17 40 15 8 2 2 2 14 23 33 29 21 22 20 22 28 35 41 46 52 52 55 62 59 54 55 57 57 53 50 50 48 49 51 52 49 45
8 7 7 7 7 13 38 42 32 31 21 8 5 10 12 17 18 21 22 23 29 35 38 35 43 51 56 58 65 66 62 62 63 64 60 54 53 51 49 52 54 53 52 48
6 26 12 6 6 7 34 44 42 44 40 40 35 29 19 15 17 22 28 33 34 37 44 48 52 55 65 70 69 67 67 68 70 68 60 58 54 52 52 55 54 51 49 45
15 12 16 15 28 15 16 43 46 43 44 46 41 33 33 32 33 36 40 38 39 48 54 60 65 71 74 70 69 70 70 71 70 68 65 61 57 53 57 55 52 47 40 38
Wind_Direction_500mb
137 189 199 194 207 90 168 191 202 153 74 256 254 268 268 257 248 247 244 231 225 219 217 220 220 222 223 223 222 227 231 238 250 259 266 269 272 276 275 274 271 272 277 282
149 215 174 150 145 137 137 159 189 129 47 245 287 282 275 253 246 237 237 236 229 223 227 226 224 222 221 218 217 219 229 243 255 262 265 267 270 273 270 264 262 263 276 286
195 133 160 151 156 175 203 218 198 290 184 193 302 267 252 242 252 254 249 245 240 232 226 229 227 222 217 213 214 221 238 252 258 261 261 262 267 274 246 256 197 249 275 286
191 152 159 171 186 195 212 192 164 163 228 259 342 289 286 258 273 266 270 250 242 237 228 224 222 217 214 213 216 225 238 247 249 242 233 224 222 220 214 247 257 271 282 289
161 170 158 173 199 175 161 159 155 151 224 298 188 242 280 311 257 182 32 331 253 242 224 216 212 209 205 206 212 220 223 222 223 216 210 210 218 230 252 266 276 286 294 295
99 102 179 152 128 165 136 108 83 81 209 244 201 226 252 219 202 216 302 321 270 249 210 199 199 195 197 199 201 200 196 196 192 188 191 201 217 238 260 273 282 292 299 302
135 150 160 141 114 115 154 156 142 215 209 251 114 203 260 268 274 289 302 302 234 190 176 184 185 187 189 189 183 180 176 175 175 170 171 179 206 247 272 285 292 297 300 303
168 190 176 172 188 176 172 190 207 219 202 143 155 228 248 238 291 313 309 171 144 145 161 171 179 180 180 177 176 173 168 160 154 147 138 116 311 306 303 300 298 298 297 298
152 132 87 143 148 153 169 209 89 109 69 253 206 252 273 201 224 69 133 138 146 151 158 166 170 172 176 176 172 165 155 146 137 125 308 296 293 296 298 299 301 303 302 301
169 113 161 129 133 80 197 149 149 174 206 231 187 258 247 202 208 166 173 166 164 161 163 164 170 173 176 175 170 165 166 173 212 249 266 280 292 300 303 304 302 300 299 298
145 106 135 152 214 181 155 185 152 148 232 250 289 236 193 235 284 238 190 181 178 173 170 172 173 176 179 175 173 180 200 222 244 264 272 275 283 294 300 303 302 300 298 298
177 95 133 193 7 313 217 204 179 203 196 236 316 251 165 244 265 231 194 187 183 174 169 164 162 166 173 184 200 214 230 243 255 264 272 275 278 289 293 298 300 297 296 297
167 158 126 167 227 174 218 201 199 123 131 197 199 202 171 250 235 200 177 183 177 168 164 166 170 175 186 204 222 234 244 252 259 265 272 275 276 284 287 290 294 296 298 299
158 157 204 226 164 160 200 208 202 205 217 216 227 247 202 195 195 183 185 182 179 175 177 183 193 204 217 223 231 239 248 255 260 266 269 271 277 282 282 284 286 289 289 288
171 163 190 68 68 190 207 207 206 213 219 224 231 231 227 197 196 191 187 185 184 187 195 202 211 220 224 230 237 243 244 253 261 265 273 277 279 280 281 282 282 280 278 277
190 120 140 151 45 258 248 226 221 220 227 237 244 248 237 232 211 190 199 198 200 212 214 213 216 222 232 240 244 243 251 254 260 265 272 276 280 280 276 273 272 272 271 268
172 135 146 212 113 7 271 220 214 221 223 227 231 241 212 217 205 205 206 212 216 225 230 234 242 239 236 237 235 226 237 248 271 280 283 285 281 276 270 265 262 258 256 254
159 144 62 118 142 231 292 57 234 221 230 227 245 246 230 220 226 223 218 218 222 231 240 251 275 268 242 229 217 228 245 270 293 298 295 289 280 272 267 263 258 253 250 247
167 144 115 165 214 300 293 198 183 191 243 230 234 240 235 231 223 238 236 230 234 243 258 268 267 252 231 223 224 227 247 276 301 311 297 288 280 273 267 262 257 252 245 240
152 173 183 157 208 235 259 352 138 89 289 232 223 234 226 187 224 242 241 246 249 253 254 254 240 228 225 226 227 238 256 277 294 297 289 283 277 272 266 260 253 248 240 237
161 166 196 180 222 269 237 165 144 149 232 257 220 221 203 198 222 248 232 255 249 246 244 233 237 237 229 225 231 247 263 274 287 274 276 277 275 270 263 255 247 243 239 235
166 161 189 166 215 258 159 133 186 199 199 79 99 208 206 219 231 235 255 252 231 228 230 233 229 226 223 227 242 258 268 278 277 271 271 270 267 262 256 248 241 234 233 232
190 203 174 193 208 102 175 203 202 193 196 172 351 165 213 228 238 238 240 247 241 247 231 224 225 227 231 237 253 264 275 277 275 268 265 264 261 258 254 245 240 233 232 231
233 182 193 138 190 203 202 216 217 225 211 200 250 258 232 238 243 251 232 234 248 245 233 234 240 243 245 251 262 273 276 276 272 263 259 259 257 254 247 242 239 236 232 230
170 149 153 287 263 222 222 215 221 227 239 253 257 252 255 262 250 255 257 247 245 252 240 244 250 255 262 266 271 271 274 272 268 260 257 256 251 249 245 241 241 239 240 237
193 161 185 218 185 206 196 216 229 234 242 253 260 270 271 270 269 266 261 261 260 256 250 250 257 263 268 274 275 273 271 268 264 256 254 251 249 245 241 236 234 230 231 229
Wind_Speed_850mb
7 12 21 26 18 3 11 11 12 3 3 5 15 29 28 25 26 29 29 30 32 35 37 47 46 43 41 40 38 35 31 28 28 28 27 28 30 33 35 33 30 27 24 23
10 20 13 15 14 10 10 10 6 1 2 6 10 31 34 30 34 41 46 43 39 34 42 49 47 42 38 36 34 30 26 25 25 24 23 22 22 24 24 17 14 9 10 11
19 5 28 18 17 19 9 14 7 4 2 3 14 21 13 8 20 26 34 40 45 47 42 48 50 44 37 34 31 27 23 22 21 18 17 16 14 9 2 1 2 7 12 14
9 8 29 24 23 20 19 15 12 11 6 7 7 11 7 5 13 14 15 19 32 39 42 45 48 46 43 37 29 25 23 19 15 13 13 11 9 6 5 6 9 12 15 19
12 19 28 26 17 18 4 16 13 5 5 5 9 9 10 5 8 5 8 5 9 18 30 41 49 48 43 37 31 24 17 13 13 13 12 11 9 6 7 10 14 17 20 22
7 3 8 8 7 18 27 18 12 7 3 8 8 11 10 9 2 2 10 11 9 12 21 35 45 43 39 34 25 18 16 15 14 13 11 9 8 8 9 12 15 18 21 23
9 7 3 8 18 10 7 21 5 7 7 6 7 9 19 10 12 16 20 8 4 9 19 35 43 42 36 27 22 21 19 18 15 12 9 6 4 5 8 12 15 18 20 21
18 10 18 13 8 17 14 10 6 10 7 4 4 12 6 2 5 10 7 6 9 15 23 33 37 34 29 27 27 26 23 19 14 10 5 1 4 8 11 14 17 19 21 22
13 6 5 3 5 20 15 16 4 10 2 4 7 8 18 3 2 0 5 9 14 19 24 28 30 30 30 30 29 28 24 16 9 3 3 7 10 13 16 19 22 24 25 25
11 12 2 4 7 6 9 24 7 2 9 10 6 9 12 4 3 5 9 15 18 24 28 29 26 27 30 32 30 27 20 11 7 10 12 14 15 17 20 22 24 25 25 25
9 5 7 9 18 26 11 11 3 7 2 5 5 6 4 7 5 6 17 22 23 27 31 27 23 26 29 29 24 20 18 17 16 18 21 22 21 21 23 25 27 28 27 26
8 9 9 14 5 6 9 13 15 9 10 5 3 9 8 8 12 15 19 22 23 25 27 25 24 26 28 28 24 24 24 24 26 26 26 26 25 24 26 28 30 31 29 27
20 9 11 5 6 3 14 16 20 5 3 16 11 6 5 7 10 16 29 30 33 33 31 28 25 22 22 23 26 27 31 33 33 32 30 30 29 30 31 31 31 31 29 27
28 8 7 18 6 20 23 31 31 33 12 16 25 16 13 10 14 23 31 34 33 33 28 24 24 24 28 31 32 32 32 33 32 31 31 30 32 34 34 34 33 31 29 28
17 9 10 3 4 10 13 36 41 44 42 25 21 40 34 24 26 40 46 37 33 35 34 32 32 35 35 34 33 33 32 29 28 27 28 31 35 37 37 35 34 32 30 28
10 6 8 6 1 2 13 27 38 41 43 47 41 46 26 41 31 39 50 50 47 49 44 35 32 37 37 35 33 29 22 18 18 22 26 31 35 37 38 37 35 33 30 26
22 11 8 12 3 5 19 31 34 34 45 44 44 43 27 25 34 47 56 58 72 62 55 46 33 33 33 33 30 21 18 16 18 22 26 30 34 39 40 40 38 35 32 29
28 17 2 6 8 18 4 2 20 39 32 39 38 28 36 46 51 51 70 75 73 72 66 50 48 43 39 30 28 22 17 15 20 28 34 37 41 44 45 44 41 38 34 30
26 14 7 9 12 20 28 14 16 21 28 42 42 44 43 32 31 40 68 74 78 72 65 66 55 45 38 34 30 25 19 18 25 36 38 42 44 46 47 46 43 40 36 34
12 16 11 6 11 14 5 1 13 10 18 29 46 46 44 31 21 30 43 68 74 71 55 45 37 40 38 37 36 30 26 31 39 40 39 45 46 46 47 44 43 41 38 36
15 10 23 12 12 14 15 11 26 11 8 9 24 44 37 25 48 26 13 21 35 40 43 42 39 41 42 43 38 37 41 46 43 46 47 49 48 46 44 43 45 42 41 40
19 18 13 8 15 28 20 18 17 9 9 2 3 24 41 48 34 40 31 21 18 18 24 35 44 49 49 47 47 50 57 48 49 51 52 50 48 46 47 47 47 47 47 43
14 12 13 22 14 7 50 17 40 15 8 2 2 2 14 23 33 29 21 22 20 22 28 35 41 46 52 52 55 62 59 54 55 57 57 53 50 50 48 49 51 52 49 45
8 7 7 7 7 13 38 42 32 31 21 8 5 10 12 17 18 21 22 23 29 35 38 35 43 51 56 58 65 66 62 62 63 64 60 54 53 51 49 52 54 53 52 48
6 26 12 6 6 7 34 44 42 44 40 40 35 29 19 15 17 22 28 33 34 37 44 48 52 55 65 70 69 67 67 68 70 68 60 58 54 52 52 55 54 51 49 45
15 12 16 15 28 15 16 43 46 43 44 46 41 33 33 32 33 36 40 38 39 48 54 60 65 71 74 70 69 70 70 71 70 68 65 61 57 53 57 55 52 47 40 38
Wind_Direction_850mb
137 189 199 194 207 90 168 191 202 153 74 256 254 268 268 257 248 247 244 231 225 219 217 220 220 222 223 223 222 227 231 238 250 259 266 269 272 276 275 274 271 272 277 282
149 215 174 150 145 137 137 159 189 129 47 245 287 282 275 253 246 237 237 236 229 223 227 226 224 222 221 218 217 219 229 243 255 262 265 267 270 273 270 264 262 263 276 286
195 133 160 151 156 175 203 218 198 290 184 193 302 267 252 242 252 254 249 245 240 232 226 229 227 222 217 213 214 221 238 252 258 261 261 262 267 274 246 256 197 249 275 286
191 152 159 171 186 195 212 192 164 163 228 259 342 289 286 258 273 266 270 250 242 237 228 224 222 217 214 213 216 225 238 247 249 242 233 224 222 220 214 247 257 271 282 289
161 170 158 173 199 175 161 159 155 151 224 298 188 242 280 311 257 182 32 331 253 242 224 216 212 209 205 206 212 220 223 222 223 216 210 210 218 230 252 266 276 286 294 295
99 102 179 152 128 165 136 108 83 81 209 244 201 226 252 219 202 216 302 321 270 249 210 199 199 195 197 199 201 200 196 196 192 188 191 201 217 238 260 273 282 292 299 302
135 150 160 141 114 115 154 156 142 215 209 251 114 203 260 268 274 289 302 302 234 190 176 184 185 187 189 189 183 180 176 175 175 170 171 179 206 247 272 285 292 297 300 303
168 190 176 172 188 176 172 190 207 219 202 143 155 228 248 238 291 313 309 171 144 145 161 171 179 180 180 177 176 173 168 160 154 147 138 116 311 306 303 300 298 298 297 298
152 132 87 143 148 153 169 209 89 109 69 253 206 252 273 201 224 69 133 138 146 151 158 166 170 172 176 176 172 165 155 146 137 125 308 296 293 296 298 299 301 303 302 301
169 113 161 129 133 80 197 149 149 174 206 231 187 258 247 202 208 166 173 166 164 161 163 164 170 173 176 175 170 165 166 173 212 249 266 280 292 300 303 304 302 300 299 298
145 106 135 152 214 181 155 185 152 148 232 250 289 236 193 235 284 238 190 181 178 173 170 172 173 176 179 175 173 180 200 222 244 264 272 275 283 294 300 303 302 300 298 298
177 95 133 193 7 313 217 204 179 203 196 236 316 251 165 244 265 231 194 187 183 174 169 164 162 166 173 184 200 214 230 243 255 264 272 275 278 289 293 298 300 297 296 297
167 158 126 167 227 174 218 201 199 123 131 197 199 202 171 250 235 200 177 183 177 168 164 166 170 175 186 204 222 234 244 252 259 265 272 275 276 284 287 290 294 296 298 299
158 157 204 226 164 160 200 208 202 205 217 216 227 247 202 195 195 183 185 182 179 175 177 183 193 204 217 223 231 239 248 255 260 266 269 271 277 282 282 284 286 289 289 288
171 163 190 68 68 190 207 207 206 213 219 224 231 231 227 197 196 191 187 185 184 187 195 202 211 220 224 230 237 243 244 253 261 265 273 277 279 280 281 282 282 280 278 277
190 120 140 151 45 258 248 226 221 220 227 237 244 248 237 232 211 190 199 198 200 212 214 213 216 222 232 240 244 243 251 254 260 265 272 276 280 280 276 273 272 272 271 268
172 135 146 212 113 7 271 220 214 221 223 227 231 241 212 217 205 205 206 212 216 225 230 234 242 239 236 237 235 226 237 248 271 280 283 285 281 276 270 265 262 258 256 254
159 144 62 118 142 231 292 57 234 221 230 227 245 246 230 220 226 223 218 218 222 231 240 251 275 268 242 229 217 228 245 270 293 298 295 289 280 272 267 263 258 253 250 247
167 144 115 165 214 300 293 198 183 191 243 230 234 240 235 231 223 238 236 230 234 243 258 268 267 252 231 223 224 227 247 276 301 311 297 288 280 273 267 262 257 252 245 240
152 173 183 157 208 235 259 352 138 89 289 232 223 234 226 187 224 242 241 246 249 253 254 254 240 228 225 226 227 238 256 277 294 297 289 283 277 272 266 260 253 248 240 237
161 166 196 180 222 269 237 165 144 149 232 257 220 221 203 198 222 248 232 255 249 246 244 233 237 237 229 225 231 247 263 274 287 274 276 277 275 270 263 255 247 243 239 235
166 161 189 166 215 258 159 133 186 199 199 79 99 208 206 219 231 235 255 252 231 228 230 233 229 226 223 227 242 258 268 278 277 271 271 270 267 262 256 248 241 234 233 232
190 203 174 193 208 102 175 203 202 193 196 172 351 165 213 228 238 238 240 247 241 247 231 224 225 227 231 237 253 264 275 277 275 268 265 264 261 258 254 245 240 233 232 231
233 182 193 138 190 203 202 216 217 225 211 200 250 258 232 238 243 251 232 234 248 245 233 234 240 243 245 251 262 273 276 276 272 263 259 259 257 254 247 242 239 236 232 230
170 149 153 287 263 222 222 215 221 227 239 253 257 252 255 262 250 255 257 247 245 252 240 244 250 255 262 266 271 271 274 272 268 260 257 256 251 249 245 241 241 239 240 237
193 161 185 218 185 206 196 216 229 234 242 253 260 270 271 270 269 266 261 261 260 256 250 250 257 263 268 274 275 273 271 268 264 256 254 251 249 245 241 236 234 230 231 229